Location: Artiguedieu
(43.5000°N, 0.5454°E)
Time: 11:08:25
(UTC+00:00)

A-11 Canister half - All Passes

Search period start: 02 August 2021 00:00
Search period end: 12 August 2021 00:00
Orbit: 1527 x 1682 km, 47.3° (Epoch: 01 August)

Date Brightness Start Highest point End Pass type
(mag) Time Alt. Az. Time Alt. Az. Time Alt. Az.
02 Aug - 09:46:34 10° SSW 09:55:49 42° SE 10:05:01 10° ENE daylight
02 Aug - 11:50:11 10° WSW 12:00:24 90° S 12:10:27 10° ENE daylight
02 Aug - 13:56:02 10° W 14:06:09 72° N 14:16:00 10° E daylight
02 Aug - 16:01:43 10° WNW 16:11:44 83° SSW 16:21:25 10° ESE daylight
02 Aug - 18:07:27 10° WNW 18:15:57 35° SW 18:24:13 10° SSE daylight
03 Aug - 09:25:02 10° SSW 09:34:11 40° SE 09:43:17 10° ENE daylight
03 Aug - 11:28:30 10° WSW 11:38:42 88° SSE 11:48:45 10° ENE daylight
03 Aug - 13:34:17 10° W 13:44:26 72° N 13:54:17 10° E daylight
03 Aug - 15:40:01 10° WNW 15:50:04 85° SSW 15:59:46 10° ESE daylight
03 Aug - 17:45:41 10° WNW 17:54:21 37° SW 18:02:46 10° SSE daylight
04 Aug - 09:03:31 10° SSW 09:12:33 38° SE 09:21:33 10° ENE daylight
04 Aug - 11:06:47 10° WSW 11:17:00 86° SSE 11:27:05 10° ENE daylight
04 Aug - 13:12:32 10° W 13:22:42 72° N 13:32:35 10° E daylight
04 Aug - 15:18:17 10° WNW 15:28:23 87° SSW 15:38:08 10° ESE daylight
04 Aug - 17:23:55 10° WNW 17:32:45 39° SW 17:41:19 10° SSE daylight
05 Aug - 08:42:01 10° SSW 08:50:55 37° SE 08:59:48 10° ENE daylight
05 Aug - 10:45:06 10° WSW 10:55:18 84° SSE 11:05:23 10° ENE daylight
05 Aug - 12:50:48 10° W 13:00:58 72° N 13:10:54 10° E daylight
05 Aug - 14:56:35 10° WNW 15:06:42 89° SSW 15:16:28 10° ESE daylight
05 Aug - 17:02:10 10° WNW 17:11:08 41° SW 17:19:50 10° SSE daylight
06 Aug - 08:20:32 10° SSW 08:29:18 35° SE 08:38:03 10° ENE daylight
06 Aug - 10:23:25 10° WSW 10:33:36 82° SSE 10:43:42 10° ENE daylight
06 Aug - 12:29:03 10° W 12:39:14 72° N 12:49:11 10° E daylight
06 Aug - 14:34:51 10° WNW 14:45:00 89° NNE 14:54:48 10° ESE daylight
06 Aug - 16:40:25 10° WNW 16:49:31 43° SW 16:58:20 10° SSE daylight
07 Aug - 07:59:04 10° S 08:07:40 33° SE 08:16:16 10° ENE daylight
07 Aug - 10:01:44 10° WSW 10:11:54 80° SSE 10:22:01 10° ENE daylight
07 Aug - 12:07:19 10° W 12:17:31 72° N 12:27:29 10° E daylight
07 Aug - 14:13:08 10° WNW 14:23:18 87° NNE 14:33:08 10° ESE daylight
07 Aug - 16:18:40 10° WNW 16:27:54 45° SW 16:36:50 10° SSE daylight
07 Aug - 18:29:01 10° WSW 18:30:52 11° WSW 18:32:43 10° SW daylight
08 Aug - 07:37:37 10° S 07:46:03 31° SE 07:54:30 10° ENE daylight
08 Aug - 09:40:04 10° SW 09:50:13 78° SSE 10:00:19 10° ENE daylight
08 Aug - 11:45:35 10° W 11:55:46 72° N 12:05:47 10° E daylight
08 Aug - 13:51:25 10° WNW 14:01:36 86° NNE 14:11:28 10° ESE daylight
08 Aug - 15:56:56 10° WNW 16:06:16 47° SW 16:15:19 10° SSE daylight
08 Aug - 18:06:14 10° WSW 18:09:19 12° WSW 18:12:23 10° SW daylight
09 Aug - 07:16:11 10° S 07:24:26 30° SE 07:32:43 10° ENE daylight
09 Aug - 09:18:25 10° SW 09:28:31 76° SSE 09:38:37 10° ENE daylight
09 Aug - 11:23:50 10° W 11:34:02 73° N 11:44:04 10° E daylight
09 Aug - 13:29:41 10° WNW 13:39:53 84° NNE 13:49:48 10° ESE daylight
09 Aug - 15:35:12 10° WNW 15:44:39 49° SW 15:53:48 10° SSE daylight
09 Aug - 17:43:51 10° W 17:47:46 13° WSW 17:51:38 10° SW daylight
10 Aug - 06:54:47 10° S 07:02:49 28° SE 07:10:55 10° ENE daylight
10 Aug - 08:56:45 10° SW 09:06:50 74° SSE 09:16:55 10° ENE daylight
10 Aug - 11:02:05 10° W 11:12:18 73° N 11:22:22 10° ENE daylight
10 Aug - 13:07:57 10° WNW 13:18:11 83° NNE 13:28:06 10° ESE daylight
10 Aug - 15:13:28 10° WNW 15:23:00 51° SW 15:32:16 10° SSE daylight
10 Aug - 17:21:38 10° W 17:26:12 14° WSW 17:30:43 10° SSW daylight
11 Aug - 06:33:23 10° S 06:41:13 27° SE 06:49:06 10° ENE daylight
11 Aug - 08:35:06 10° SW 08:45:09 71° SSE 08:55:14 10° ENE daylight
11 Aug - 10:40:22 10° W 10:50:34 74° N 11:00:40 10° ENE daylight
11 Aug - 12:46:15 10° WNW 12:56:28 81° NNE 13:06:25 10° ESE daylight
11 Aug - 14:51:44 10° WNW 15:01:22 53° SW 15:10:43 10° SE daylight
11 Aug - 16:59:31 10° W 17:04:38 15° WSW 17:09:41 10° SSW daylight
